CAPE
12 6 21 6 3 9 11 2 0 0 0 1 10 2 0 5 0 0 0 0 0 0 0 0 0 0 0 0 0 0 0 0 0 0 0 0 0 0 0 0 0 0 0 0 0 0 0 0 0 0 0 0 0 0
7 11 13 9 5 8 18 6 0 0 2 1 13 4 4 13 0 0 0 0 0 0 0 0 0 0 0 0 0 0 0 0 0 0 0 0 0 0 0 0 0 0 0 1 0 0 0 0 0 0 0 0 0 0
8 8 5 20 9 3 12 0 0 0 0 5 2 4 5 14 0 0 0 0 0 0 0 0 0 0 0 0 0 0 0 0 0 0 0 0 0 0 0 0 0 0 0 0 0 0 0 0 0 0 0 0 0 0
11 8 5 24 12 5 3 0 0 0 2 2 3 4 3 2 0 0 0 0 0 0 0 0 0 0 0 0 0 0 0 0 0 0 0 0 0 0 0 0 0 0 0 0 0 0 0 0 0 0 0 0 0 0
17 5 8 20 9 1 0 0 0 0 5 3 3 8 2 0 0 0 0 0 0 0 0 0 0 0 0 0 0 0 0 0 0 0 0 0 0 0 0 0 0 0 0 0 0 0 0 0 0 0 0 0 0 0
24 9 7 6 6 0 0 0 0 8 3 4 6 0 0 0 0 0 0 0 0 0 0 0 0 0 0 0 0 0 0 0 0 0 0 0 0 0 0 0 0 0 0 0 0 0 0 0 0 0 0 0 0 0
31 16 3 4 0 0 0 0 2 3 4 4 3 0 0 0 0 0 0 0 0 0 0 0 0 0 0 0 0 0 0 0 0 0 0 0 0 0 0 0 0 0 0 0 0 1 0 0 0 0 0 0 0 0
21 16 4 3 5 0 0 0 3 3 5 3 1 1 0 0 0 0 0 0 0 0 0 0 0 0 0 0 1 0 0 0 0 0 0 0 0 0 0 0 0 0 0 0 0 0 0 0 0 0 0 0 3 0
16 13 6 6 0 0 0 1 5 3 7 2 1 1 2 0 0 0 0 0 0 0 0 0 0 0 0 1 0 0 0 0 0 0 0 0 0 0 0 0 0 0 0 1 0 1 0 0 0 0 0 0 1 1
9 10 7 0 0 0 1 7 5 5 3 7 2 0 0 0 0 0 0 0 0 0 0 0 0 0 0 0 0 0 0 0 0 0 0 0 0 0 0 0 0 0 1 1 1 0 0 0 0 0 0 0 0 0
9 10 0 0 0 1 6 4 5 3 3 0 0 0 0 0 0 0 0 0 0 0 0 0 0 0 0 0 0 0 0 0 0 0 0 0 0 0 0 0 0 0 0 1 1 3 0 0 0 1 1 0 0 0
6 0 0 0 9 8 6 8 3 0 0 0 0 0 0 0 0 0 0 0 0 0 0 0 0 0 0 0 0 1 0 0 0 0 1 0 0 0 0 0 0 0 0 1 1 2 0 0 1 1 1 0 0 0
0 1 2 0 0 14 6 2 0 0 0 0 0 0 0 0 0 0 0 0 0 0 0 0 0 0 0 0 0 0 1 0 0 1 1 0 0 0 0 0 0 0 1 1 1 1 1 0 0 0 0 1 1 1
6 1 3 1 5 10 3 0 0 1 0 0 0 0 0 0 0 0 0 0 0 0 0 0 0 0 0 0 0 0 0 0 0 0 0 0 0 0 0 0 0 1 0 0 0 0 0 1 0 1 1 1 0 0
8 8 13 8 7 7 0 2 1 0 0 0 0 0 0 0 0 0 0 0 0 0 0 0 0 0 0 0 0 0 1 0 0 0 0 0 0 0 0 0 0 0 0 0 1 1 1 0 0 0 0 0 0 0
3 13 20 14 4 2 8 0 0 0 0 0 0 0 1 0 0 0 0 0 0 0 0 0 0 0 0 0 0 0 0 0 0 0 0 0 0 0 0 0 0 0 0 0 0 0 0 0 0 0 0 0 0 0
11 9 11 4 11 4 0 0 0 0 0 0 0 0 0 0 0 0 0 0 0 0 0 0 0 0 0 0 0 0 0 0 0 0 0 0 0 0 0 0 0 0 0 1 0 0 0 0 0 0 0 0 0 0
5 9 6 15 1 0 0 1 1 0 0 0 0 0 2 1 1 0 0 0 0 0 0 0 0 0 0 0 0 0 0 0 0 0 0 0 0 0 0 0 0 0 0 0 0 0 1 1 0 0 0 0 0 0
4 10 15 3 0 0 0 0 0 0 0 0 0 0 0 0 0 0 0 0 0 0 0 0 0 0 0 0 0 0 0 0 0 0 0 0 0 0 0 0 0 0 0 0 0 0 0 0 0 0 0 0 0 0
9 15 3 0 0 0 0 0 0 0 0 0 0 0 0 0 0 0 0 0 0 0 0 0 0 0 0 0 0 0 0 0 0 0 0 0 0 0 0 0 0 0 0 0 0 0 0 0 0 0 0 0 0 0
0 1 0 0 0 0 0 0 0 0 0 0 0 0 0 0 0 0 0 0 0 0 0 0 0 0 0 0 0 0 0 0 0 0 0 0 0 0 0 0 0 0 0 0 0 0 0 0 0 0 0 0 0 0
0 0 1 0 0 0 0 0 0 0 0 0 0 0 0 0 0 0 0 0 0 0 0 0 0 0 0 0 0 0 0 0 0 0 0 0 0 0 0 0 0 0 0 0 0 0 0 0 0 0 0 0 0 0
0 0 0 0 0 0 0 0 0 0 0 0 0 0 0 0 0 0 0 0 0 0 0 0 0 0 0 0 0 0 0 0 0 0 0 0 0 0 0 0 0 0 0 0 0 0 0 0 0 0 0 0 0 0
0 0 0 0 0 0 0 0 0 0 0 0 0 0 0 0 0 0 0 0 0 0 0 0 0 0 0 0 0 0 0 0 0 0 0 0 0 0 0 0 0 0 0 0 0 0 0 0 0 0 0 0 0 0
0 0 0 0 0 0 0 0 0 0 0 0 0 0 0 0 0 0 0 0 0 0 0 0 0 0 0 0 0 0 0 0 0 0 0 0 0 0 0 0 0 0 0 0 0 0 0 0 0 0 0 0 0 0
0 0 0 0 0 0 0 0 0 0 0 0 0 0 0 0 0 0 0 0 0 0 0 0 0 0 0 0 0 0 0 0 0 0 0 0 0 0 0 0 0 0 0 0 0 0 0 0 0 0 0 0 0 0
0 0 0 0 0 0 0 0 0 0 0 0 0 0 0 0 0 0 0 0 0 0 0 0 0 0 0 0 0 0 0 0 0 0 0 0 0 0 0 0 0 0 0 0 0 0 0 0 0 0 0 0 0 0
0 0 0 0 0 0 0 0 0 0 0 0 0 0 0 0 0 0 0 0 0 0 0 0 0 0 0 0 0 0 0 0 0 0 0 0 0 0 0 0 0 0 0 0 0 0 0 0 0 0 0 0 0 0
0 0 0 0 0 0 0 0 0 0 0 0 0 0 0 0 0 0 0 0 0 0 0 0 0 0 0 0 0 0 0 0 0 0 0 0 0 0 0 0 0 0 0 0 0 0 0 0 0 0 0 0 0 0
0 0 0 0 0 0 0 0 0 0 0 0 0 0 0 0 0 0 0 0 0 0 0 0 0 0 0 0 0 0 0 0 0 0 0 0 0 0 0 0 0 0 0 0 0 0 0 0 0 0 0 0 0 0
0 0 0 0 0 0 0 0 0 0 0 0 0 0 0 0 0 0 0 0 0 0 0 0 0 0 0 0 0 0 0 0 0 0 0 0 0 0 0 0 0 0 0 0 0 0 0 0 0 0 0 0 0 0
0 0 0 0 0 0 0 0 0 0 0 0 0 0 0 0 0 0 0 0 0 0 0 0 0 0 0 0 0 0 0 0 0 0 0 0 0 0 0 0 0 0 0 0 0 0 0 0 0 0 0 0 0 0
0 0 0 0 0 0 0 0 0 0 0 0 0 0 0 0 0 0 0 0 0 0 0 0 0 0 0 0 0 0 0 0 0 0 0 0 0 1 0 0 0 0 0 0 0 0 0 0 0 0 0 0 0 0
CIN
0 0 0 -1 -1 -1 -1 0 0 -3 0 0 -12 0 0 0 0 0 0 0 0 0 0 0 0 0 0 0 0 0 0 0 0 0 0 0 0 0 0 0 0 0 0 0 0 0 0 0 0 0 0 0 0 -9
-1 0 0 0 -1 -1 -1 0 0 0 0 0 -9 0 0 0 0 0 0 0 0 0 0 0 0 0 0 0 0 0 0 0 0 0 0 0 0 0 0 0 0 -1 0 -5 0 0 0 0 0 0 0 0 0 0
0 -1 0 0 -1 -2 0 0 0 0 0 -2 -5 0 0 0 0 0 0 0 0 0 0 0 0 0 0 0 0 0 0 0 0 0 0 0 0 0 0 0 0 0 0 0 0 0 0 0 0 0 0 0 0 0
0 0 0 -1 0 -2 0 0 0 0 0 0 0 0 0 0 0 0 0 0 0 0 0 0 0 0 0 0 0 0 0 0 0 0 0 0 0 0 0 0 0 0 0 0 0 0 0 0 0 0 0 0 0 0
0 0 0 0 -1 -2 0 0 0 0 0 0 0 0 0 0 0 0 0 0 0 0 0 0 0 0 0 0 0 0 0 0 0 0 0 0 0 0 0 0 0 0 0 0 0 0 0 0 0 0 0 0 0 0
0 0 0 -1 -1 0 0 0 0 0 0 0 0 0 0 0 0 0 0 0 0 0 0 0 0 0 0 0 0 0 0 0 0 0 0 0 0 0 0 0 0 0 0 0 0 0 0 0 0 0 0 0 0 0
0 0 0 -2 0 0 0 0 0 0 0 0 0 0 0 0 0 0 0 0 0 0 0 0 0 0 0 0 -1 0 0 0 0 0 0 0 0 0 0 0 0 0 0 0 0 0 0 0 0 0 0 0 0 0
0 0 0 -1 0 0 0 0 0 0 0 0 0 -20 0 0 0 0 0 0 0 0 0 0 0 0 0 0 0 -2 0 0 0 0 0 0 0 0 0 0 0 0 0 0 0 -2 0 0 0 0 0 0 -1 0
0 0 -2 0 0 0 0 0 0 0 0 0 0 -1 -1 0 0 0 0 0 0 0 0 0 0 0 0 -1 0 -2 -2 0 0 0 0 0 0 0 0 0 0 0 0 0 -1 -2 0 0 0 0 0 -2 0 -1
0 0 0 0 0 0 0 0 0 0 0 0 -2 0 0 0 0 0 0 0 0 0 0 0 0 0 0 -1 -1 0 0 0 0 0 0 0 0 0 0 0 0 0 0 0 -1 0 0 0 0 0 0 0 0 -1
0 0 0 0 0 0 0 0 0 0 -1 0 0 0 0 0 0 0 0 0 0 0 0 0 0 0 0 0 0 0 0 0 0 0 0 0 0 0 0 0 0 0 0 0 -4 -3 -2 0 0 0 0 0 0 0
-1 0 0 0 -1 0 0 0 0 0 0 0 0 0 0 0 0 0 0 0 0 0 0 0 0 0 0 0 0 -1 0 -1 0 0 -1 0 0 0 0 0 0 0 0 0 0 -2 0 0 0 0 0 0 0 0
0 -3 -1 0 0 0 0 0 0 0 0 0 0 0 0 0 0 0 0 0 0 0 0 0 0 0 0 -1 -1 -2 0 0 0 0 0 0 0 0 0 0 0 0 0 0 0 0 0 0 0 0 0 0 0 0
-1 -3 -1 0 0 0 -1 0 0 -6 0 0 0 0 0 0 0 0 0 0 0 0 0 0 0 0 -1 0 0 0 0 -1 0 0 0 0 0 0 0 0 0 0 -1 0 0 0 0 0 0 0 0 0 0 0
-5 -1 0 0 0 0 0 -2 -5 0 0 0 0 0 0 0 0 0 0 0 0 0 0 0 0 0 0 0 0 0 -1 0 0 0 0 0 0 0 0 0 0 0 0 0 0 0 0 0 0 0 0 0 0 0
-3 0 0 0 -2 -4 -1 0 0 0 0 0 0 0 0 0 0 0 0 0 0 0 0 0 0 0 0 0 0 0 0 0 0 0 0 0 0 0 0 0 0 0 0 0 0 0 0 0 0 0 0 0 0 0
0 0 0 -1 0 -2 0 0 0 0 0 0 0 0 0 0 0 0 0 0 0 0 0 0 0 0 0 0 0 0 0 0 0 0 0 0 0 0 0 0 0 0 0 0 0 0 0 0 0 0 0 0 0 0
0 0 0 0 -2 0 0 0 0 0 0 0 0 0 0 0 0 0 0 0 0 0 0 0 0 0 0 0 0 0 0 0 0 0 0 0 0 0 0 0 0 0 0 0 0 0 0 0 0 0 0 0 0 0
0 0 0 -1 0 0 0 0 0 0 0 0 0 0 0 0 0 0 0 0 0 0 0 0 0 0 0 0 0 0 0 0 0 0 0 0 0 0 0 0 0 0 0 0 0 0 0 0 0 0 0 0 0 0
0 0 0 0 0 0 0 0 0 0 0 0 0 0 0 0 0 0 0 0 0 0 0 0 0 0 0 0 0 0 0 0 0 0 0 0 0 0 0 0 0 0 0 0 0 0 0 0 0 0 0 0 0 0
0 0 0 0 0 0 0 0 0 0 0 0 0 0 0 0 0 0 0 0 0 0 0 0 0 0 0 0 0 0 0 0 0 0 0 0 0 0 0 0 0 0 0 0 0 0 0 0 0 0 0 0 0 0
0 0 0 0 0 0 0 0 0 0 0 0 0 0 0 0 0 0 0 0 0 0 0 0 0 0 0 0 0 0 0 0 0 0 0 0 0 0 0 0 0 0 0 0 0 0 0 0 0 0 0 0 0 0
0 0 0 0 0 0 0 0 0 0 0 0 0 0 0 0 0 0 0 0 0 0 0 0 0 0 0 0 0 0 0 0 0 0 0 0 0 0 0 0 0 0 0 0 0 0 0 0 0 0 0 0 0 0
0 0 0 0 0 0 0 0 0 0 0 0 0 0 0 0 0 0 0 0 0 0 0 0 0 0 0 0 0 0 0 0 0 0 0 0 0 0 0 0 0 0 0 0 0 0 0 0 0 0 0 0 0 0
0 0 0 0 0 0 0 0 0 0 0 0 0 0 0 0 0 0 0 0 0 0 0 0 0 0 0 0 0 0 0 0 0 0 0 0 0 0 0 0 0 0 0 0 0 0 0 0 0 0 0 0 0 0
0 0 0 0 0 0 0 0 0 0 0 0 0 0 0 0 0 0 0 0 0 0 0 0 0 0 0 0 0 0 0 0 0 0 0 0 0 0 0 0 0 0 0 0 0 0 0 0 0 0 0 0 0 0
0 0 0 0 0 0 0 0 0 0 0 0 0 0 0 0 0 0 0 0 0 0 0 0 0 0 0 0 0 0 0 0 0 0 0 0 0 0 0 0 0 0 0 0 0 0 0 0 0 0 0 0 0 0
0 0 0 0 0 0 0 0 0 0 0 0 0 0 0 0 0 0 0 0 0 0 0 0 0 0 0 0 0 0 0 0 0 0 0 0 0 0 0 0 0 0 0 0 0 0 0 0 0 0 0 0 0 0
0 0 0 0 0 0 0 0 0 0 0 0 0 0 0 0 0 0 0 0 0 0 0 0 0 0 0 0 0 0 0 0 0 0 0 0 0 0 0 0 0 0 0 0 0 0 0 0 0 0 0 0 0 0
0 0 0 0 0 0 0 0 0 0 0 0 0 0 0 0 0 0 0 0 0 0 0 0 0 0 0 0 0 0 0 0 0 0 0 0 0 0 0 0 0 0 0 0 0 0 0 0 0 0 0 0 0 0
0 0 0 0 0 0 0 0 0 0 0 0 0 0 0 0 0 0 0 0 0 0 0 0 0 0 0 0 0 0 0 0 0 0 0 0 0 0 0 0 0 0 0 0 0 0 0 0 0 0 0 0 0 0
0 0 0 0 0 0 0 0 0 0 0 0 0 0 0 0 0 0 0 0 0 0 0 0 0 0 0 0 0 0 0 0 0 0 0 0 0 0 0 0 0 0 0 0 0 0 0 0 0 0 0 0 0 0
0 0 0 0 0 0 0 0 0 0 0 0 0 0 0 0 0 0 0 0 0 0 0 0 0 0 0 0 0 0 0 0 0 0 0 0 0 0 0 0 0 0 0 0 0 0 0 0 0 0 0 0 0 0
Wind_Speed
17 13 13 32 41 39 36 33 31 31 32 29 39 27 29 31 31 23 19 19 23 22 18 19 18 14 12 12 14 13 15 14 15 15 15 16 16 17 18 18 19 19 19 17 14 11 7 23 19 15 23 25 23 20
17 13 17 41 42 41 39 36 33 33 32 29 35 30 29 30 27 23 28 20 13 15 17 13 10 13 15 12 13 13 12 14 14 16 15 15 15 15 17 19 14 18 15 17 13 12 9 16 18 23 24 23 24 23
19 15 19 44 45 42 40 37 35 37 37 37 28 28 28 30 27 26 18 24 18 17 15 15 16 16 16 16 14 13 12 13 13 14 15 15 15 15 16 15 15 13 12 12 12 13 8 6 21 24 25 24 26 24
21 19 23 45 46 44 42 39 37 37 34 32 25 27 28 29 28 21 18 24 21 15 16 17 19 17 18 17 16 15 14 15 15 15 15 15 14 13 14 14 13 12 13 13 11 10 10 7 15 26 27 27 26 26
23 22 29 45 47 45 42 39 37 39 38 27 27 26 25 25 22 16 13 26 23 21 12 13 16 17 16 15 15 16 16 16 15 15 15 14 14 14 14 14 12 12 14 16 16 13 11 7 25 32 31 28 28 27
26 26 39 47 47 43 40 36 37 38 31 27 25 23 25 23 19 20 27 28 24 17 12 10 15 15 13 13 14 15 16 16 15 15 14 14 13 14 15 14 13 13 15 15 15 13 13 10 17 25 27 30 29 28
27 31 48 49 48 43 38 32 32 29 26 26 24 22 21 21 23 28 26 25 23 18 15 11 13 14 12 14 13 14 16 15 15 15 14 13 13 14 14 14 14 17 17 16 15 16 16 12 10 17 31 32 28 27
57 58 53 51 47 44 39 37 34 26 25 26 23 19 18 15 18 27 19 18 21 17 16 10 12 10 9 10 11 12 14 14 15 14 13 13 13 13 12 10 12 17 20 19 18 16 14 9 8 8 21 26 26 26
60 56 57 51 47 43 41 37 33 26 26 26 23 19 17 22 27 25 20 17 17 20 12 12 4 7 8 10 11 12 12 14 14 14 13 13 12 11 11 12 15 19 21 20 17 17 16 13 12 9 18 22 24 24
56 60 58 50 45 44 37 36 33 31 29 27 22 23 25 25 22 22 20 22 21 21 18 11 6 7 6 8 10 12 12 13 14 12 14 12 10 4 7 11 15 18 18 18 20 21 20 15 11 8 16 21 23 24
57 60 54 49 46 37 45 38 35 34 28 27 25 25 24 24 24 21 18 19 18 17 16 10 6 3 6 7 9 10 12 12 13 13 13 15 14 11 13 15 16 18 17 15 13 12 13 11 8 15 21 19 17 15
58 56 50 47 48 46 44 40 37 33 31 26 22 21 25 25 19 20 19 17 16 11 10 5 1 4 5 8 10 9 12 12 13 12 14 16 12 11 13 16 18 18 18 15 13 12 12 11 11 15 19 19 19 19
51 47 46 44 49 52 43 36 33 30 28 27 22 23 25 21 22 20 17 15 9 5 5 2 3 5 7 8 9 10 10 10 12 13 14 12 12 11 12 16 19 19 18 16 15 13 11 10 11 14 15 20 21 19
44 42 43 44 49 45 40 34 39 39 28 23 23 24 26 21 22 15 12 9 10 5 5 7 4 7 8 7 10 11 10 11 12 13 12 11 9 10 12 16 18 20 19 17 15 14 12 10 9 14 16 18 20 21
38 36 39 49 45 40 37 38 39 31 22 21 21 22 18 13 12 9 7 6 6 5 7 4 6 9 8 9 9 11 10 11 11 12 11 9 10 10 12 15 18 18 17 17 16 15 15 13 11 14 17 18 20 21
37 37 43 47 41 37 34 33 29 26 20 20 18 15 13 9 7 9 6 1 3 6 2 6 7 9 10 9 9 9 10 11 13 9 10 9 9 11 13 15 16 17 16 15 14 14 15 15 14 14 19 19 21 21
40 32 48 43 40 32 29 30 26 23 21 20 20 13 13 11 7 8 5 4 5 3 1 7 9 10 9 10 9 9 11 12 10 10 8 8 9 12 13 14 16 16 16 16 15 14 13 13 13 11 17 20 21 21
31 45 45 42 36 28 27 23 21 21 23 20 18 15 12 8 4 5 6 5 6 6 6 8 9 9 10 10 11 11 9 10 10 8 8 9 11 13 13 14 15 17 16 15 14 13 12 11 10 9 14 22 23 23
43 44 41 36 30 27 23 23 20 21 19 16 13 11 10 7 8 7 5 5 6 7 6 10 12 12 11 11 11 10 8 8 8 8 9 10 12 13 13 15 15 16 16 16 16 15 14 13 12 10 14 22 23 25
40 38 34 26 23 22 19 20 19 17 20 17 13 11 8 8 7 4 3 7 8 10 12 13 12 12 11 11 9 11 8 7 8 10 10 11 13 13 14 14 16 17 18 18 17 17 16 16 14 14 18 23 24 26
32 30 26 24 21 15 16 19 18 16 14 15 10 11 10 8 7 7 8 10 11 13 12 11 12 11 12 12 11 11 9 8 9 10 13 16 15 14 15 15 17 19 19 19 18 18 17 17 18 18 20 24 26 27
28 26 25 20 18 16 16 15 15 13 14 13 10 9 8 8 9 9 11 12 14 13 11 12 12 10 10 12 13 12 12 11 13 15 16 16 16 16 16 16 17 18 17 16 16 17 18 19 19 20 22 25 24 25
22 22 20 18 18 18 18 16 16 16 14 12 12 12 13 12 11 11 13 15 15 14 13 13 12 12 12 14 14 14 14 14 14 15 16 16 16 17 17 16 16 16 15 14 14 16 18 19 22 23 24 25 25 25
20 19 20 21 19 20 18 18 15 14 13 14 15 16 15 13 12 15 18 15 14 13 12 12 12 13 14 15 15 15 15 13 14 15 15 15 16 16 15 15 14 12 12 14 14 15 16 19 24 26 26 26 26 27
20 21 20 20 19 19 20 19 18 16 18 16 15 16 13 12 14 15 16 14 12 12 11 11 11 11 13 13 13 14 16 13 13 14 15 14 15 16 17 15 13 13 14 14 14 16 19 24 27 28 29 29 31 31
21 19 23 21 21 22 19 20 18 16 15 16 16 12 12 13 14 17 15 12 10 10 9 8 8 8 9 10 12 13 14 14 14 14 15 16 15 16 16 16 15 14 16 17 19 22 25 29 31 32 33 33 33 33
21 21 19 18 17 16 18 18 16 17 18 17 14 13 14 17 18 15 12 11 11 10 9 7 7 8 7 8 11 13 14 15 15 15 16 18 18 18 18 18 19 18 20 22 24 26 29 32 35 36 37 36 35 35
18 17 18 16 15 17 17 17 18 18 18 14 11 17 16 16 16 12 11 9 8 7 8 9 9 9 9 11 12 13 15 16 15 16 18 19 19 20 21 21 21 23 24 25 28 29 31 32 34 35 36 36 37 34
16 14 14 15 15 17 18 19 18 16 14 11 15 15 14 14 12 11 8 7 7 6 6 6 9 10 11 12 14 16 17 17 18 21 23 24 24 22 25 26 28 29 30 31 31 31 32 33 34 35 36 38 39 39
16 16 17 18 19 20 18 16 15 14 12 12 13 12 12 12 11 10 8 7 7 7 7 8 8 9 10 12 14 17 19 20 20 21 24 26 26 26 28 29 30 31 31 33 34 35 36 35 36 38 39 40 41 42
15 16 17 17 17 16 14 13 12 11 12 12 13 11 10 11 11 11 10 9 8 6 7 8 9 10 11 13 15 18 20 19 21 23 24 25 26 28 29 30 31 32 33 33 33 35 36 36 35 36 38 39 40 39
17 17 16 16 15 12 12 12 12 13 13 13 13 12 12 11 11 10 9 7 6 6 8 7 9 11 12 15 16 18 20 21 22 23 25 27 28 29 30 31 31 31 32 32 31 31 32 33 34 35 36 37 37 37
15 15 14 14 14 14 13 12 14 14 14 14 14 13 13 13 13 12 10 9 7 6 6 8 10 12 13 15 17 19 21 22 24 25 27 28 28 30 30 29 29 28 27 27 27 27 29 31 32 32 32 31 31 30
Wind_Direction
297 280 243 227 244 245 240 240 242 239 236 239 212 205 195 200 213 226 229 234 228 230 238 242 245 288 338 13 16 58 47 56 52 52 57 57 56 58 50 54 54 53 51 51 62 55 57 305 303 312 293 289 297 302
271 260 229 236 240 241 237 237 239 238 236 241 213 206 198 201 207 222 219 219 228 236 240 257 290 295 290 59 48 69 70 59 61 54 58 59 58 57 52 45 63 48 59 49 61 54 87 341 311 299 301 299 299 297
265 249 220 239 235 236 236 239 240 234 228 219 210 203 197 204 207 220 218 218 230 233 245 255 263 271 306 308 3 46 67 57 54 54 56 55 54 57 47 49 47 54 60 47 40 44 44 41 309 288 293 303 290 293
250 235 212 239 231 231 233 236 236 231 234 208 205 201 202 201 207 218 220 221 227 241 257 261 250 275 276 328 354 21 47 42 49 50 49 51 53 58 52 48 45 50 45 37 23 7 13 23 343 293 286 292 298 295
248 225 202 233 224 226 230 234 234 229 210 204 201 196 191 196 200 209 220 221 229 237 272 273 266 284 308 353 10 20 37 43 45 46 46 49 52 49 45 43 42 53 40 26 18 22 5 345 320 295 284 283 282 289
235 212 195 224 218 220 223 229 229 210 200 198 186 175 190 188 192 210 219 226 229 240 274 302 272 294 320 0 9 14 22 30 39 44 46 51 55 47 45 41 50 48 38 30 14 7 349 325 326 314 297 283 279 279
213 194 213 213 210 212 215 218 203 191 190 186 181 176 186 193 208 214 223 223 223 238 266 304 317 312 328 335 356 12 12 33 37 39 46 52 51 50 43 38 48 38 27 17 6 1 354 359 352 327 287 272 275 273
209 195 206 204 204 205 207 206 202 183 179 173 169 166 177 186 207 215 233 226 223 239 262 303 316 347 355 17 27 22 31 33 27 34 49 52 52 48 43 56 42 25 19 19 21 19 19 27 39 52 303 262 258 263
195 199 195 196 199 201 203 210 181 174 166 159 157 165 190 214 211 216 223 227 232 242 275 293 2 9 43 359 11 18 39 28 30 30 42 49 51 48 54 44 32 23 18 16 26 30 36 46 58 114 232 248 248 262
191 187 187 190 193 194 204 172 169 159 153 154 171 201 202 205 199 208 224 225 237 249 265 302 353 351 56 36 17 20 35 33 25 38 45 41 34 69 52 36 29 23 23 27 26 32 38 52 76 150 219 231 251 257
181 181 183 186 189 194 173 164 160 155 160 188 199 203 194 196 205 221 232 238 249 263 273 292 308 48 55 31 27 36 32 38 26 32 35 26 28 54 45 36 28 25 30 34 44 47 55 72 90 229 260 265 288 303
175 178 183 187 187 182 164 160 158 183 193 193 187 185 192 204 220 229 237 247 256 269 293 309 49 33 27 32 17 37 19 34 22 47 25 19 39 53 44 28 26 30 33 39 46 50 58 68 70 19 308 297 303 303
176 180 184 187 194 176 163 165 176 163 152 173 182 197 203 220 227 235 234 248 262 294 301 53 59 21 26 29 29 29 23 25 37 18 14 23 38 50 39 29 25 28 33 40 44 49 58 69 67 28 354 309 302 309
177 180 185 184 166 165 166 166 163 173 184 200 201 202 216 229 238 254 251 259 270 287 109 106 45 10 24 35 35 17 20 25 8 4 13 33 48 50 34 24 21 22 29 37 42 45 47 60 56 11 356 334 303 304
180 187 185 171 163 165 163 168 180 190 204 209 215 225 232 249 262 259 259 273 268 122 117 81 11 10 13 9 21 13 13 2 2 5 25 40 52 41 28 18 17 20 25 32 37 40 41 43 49 4 338 330 309 298
187 190 186 170 165 159 169 180 192 202 215 222 235 239 239 249 254 256 261 191 175 132 90 355 353 350 344 358 360 354 359 350 356 18 31 52 40 25 15 13 14 17 22 28 32 34 33 36 40 28 338 328 310 315
187 194 168 165 161 168 182 190 198 211 227 234 237 247 246 251 248 260 250 224 172 188 316 345 328 334 8 349 343 349 345 357 15 24 46 41 24 11 8 11 11 15 19 23 24 25 26 27 28 32 352 329 323 319
201 169 163 163 171 181 192 203 214 225 228 233 233 236 255 263 242 257 266 186 226 263 317 331 348 335 337 342 342 351 4 11 18 37 31 21 9 1 2 4 5 6 11 14 17 15 12 8 8 10 351 325 317 314
170 165 163 172 184 190 206 217 227 227 232 234 235 249 260 263 273 271 243 225 281 297 332 327 330 326 328 336 345 359 6 11 12 17 8 2 356 352 352 351 355 357 1 2 2 359 357 356 354 355 343 323 317 310
157 163 171 178 193 207 218 223 230 232 230 238 243 250 263 271 277 275 230 269 281 294 307 314 321 335 341 344 358 357 8 17 10 359 354 347 342 342 343 342 344 348 350 351 352 354 355 355 354 350 337 319 315 310
164 177 181 192 204 219 229 228 231 238 235 241 246 261 275 277 277 272 276 285 288 293 299 314 323 332 340 348 357 1 4 1 353 347 341 337 334 335 336 337 340 342 345 349 353 357 360 359 358 355 342 325 315 312
184 185 193 204 214 232 239 247 235 247 253 244 259 284 282 279 281 280 290 289 294 294 302 313 318 326 332 337 340 345 347 345 340 335 334 334 333 332 332 333 337 338 344 350 355 358 360 360 359 352 340 329 325 320
188 196 210 221 231 242 238 251 245 255 260 254 262 276 282 283 286 290 296 298 295 301 304 308 318 326 328 332 336 338 339 337 333 331 330 329 330 331 331 333 336 339 345 352 360 0 1 1 353 347 342 335 330 325
201 215 226 230 240 240 240 248 257 264 264 266 267 274 279 289 291 289 294 303 305 307 304 306 314 319 325 328 331 335 337 337 335 335 336 337 336 336 336 335 339 344 349 354 355 358 2 358 345 337 335 333 330 325
215 229 238 239 246 245 247 251 260 267 266 268 274 280 284 295 293 295 302 307 304 303 312 321 325 329 331 338 344 346 344 347 348 346 347 348 350 350 348 351 353 354 355 352 352 352 348 341 334 329 326 323 318 314
230 247 240 245 244 246 249 251 258 264 268 277 281 290 295 298 297 302 305 309 316 318 320 323 331 340 347 356 2 1 1 360 3 1 358 354 351 348 347 344 341 343 348 345 339 334 332 328 323 321 319 318 317 315
240 247 251 255 255 254 256 265 267 273 275 276 275 281 291 293 295 306 316 317 320 329 341 355 0 1 9 11 3 0 359 360 359 359 358 354 352 351 347 341 336 337 338 335 332 328 325 321 318 316 313 314 314 312
254 253 244 246 256 263 260 263 265 267 274 284 278 281 288 293 300 312 316 327 346 356 359 359 359 2 360 356 354 354 352 352 355 354 352 351 351 350 349 345 342 338 335 332 328 325 323 320 318 317 316 314 313 313
260 252 252 257 266 271 271 270 272 280 285 272 284 287 292 303 313 320 333 346 352 4 5 0 350 353 354 351 349 348 347 347 341 336 334 334 335 337 338 336 334 332 330 327 326 325 322 320 318 316 314 312 310 309
256 264 264 264 265 270 276 280 278 283 283 286 296 300 304 309 319 327 334 337 340 339 342 345 351 348 346 346 344 343 343 344 344 340 334 332 333 334 334 334 332 331 330 327 325 324 323 322 319 317 314 312 310 307
261 267 267 270 271 276 278 281 282 286 290 296 301 301 305 312 312 316 320 326 338 351 352 351 352 352 351 347 344 340 339 344 344 342 340 339 338 336 335 334 332 331 330 329 328 327 326 325 324 322 320 318 315 312
263 264 263 266 266 271 276 277 282 285 288 291 296 302 306 310 309 314 319 326 331 336 340 349 351 348 349 349 349 349 347 346 344 344 342 340 338 337 336 335 335 334 334 333 334 334 333 332 331 329 327 324 322 318
263 262 265 265 262 264 270 279 284 285 289 290 294 298 301 304 305 314 324 323 328 341 354 355 355 357 358 355 352 350 349 348 346 344 342 342 341 342 342 343 343 343 344 344 345 345 343 342 341 340 339 338 336 335